Location: Brno
(49.2000°N, 16.6330°E)
Time: 20:27:22
(UTC+02:00)

Vanguard 3 - Pass Details

Date: 06 August 2021
Orbit: 510 x 3260 km, 33.3° (Epoch: 20 September)

Event Time Altitude Azimuth Distance (km) Brightness Sun altitude
Rises 23:55:52 0° 274° (W) 6,844 12.1 -22.6°
Reaches altitude 10° 00:01:56 10° 261° (W) 6,065 11.6 -22.9°
Maximum altitude 00:14:23 21° 222° (SW) 5,239 10.9 -23.3°
Enters shadow 00:19:29 19° 203° (SSW) 5,305 10.8 -23.5°
Drops below altitude 10° 00:26:26 10° 181° (S) 5,784 - -23.7°
Sets 00:32:08 0° 167° (SSE) 6,450 - -23.8°
